Location: Bremen
(53.0793°N, 8.8017°E)
Time: 11:20:01
(UTC+01:00)

deb Explorer IX - Pass Details

Date: 12 December 2021
Orbit: 544 x 1082 km, 38.8° (Epoch: 14 January)

Event Time Altitude Azimuth Distance (km) Brightness Sun altitude
Rises 09:32:11 0° 242° (WSW) 3,380 ? 5.7°
Reaches altitude 10° 09:35:44 10° 223° (SW) 2,323 ? 6.0°
Maximum altitude 09:39:00 16° 185° (S) 1,816 ? 6.3°
Drops below altitude 10° 09:42:01 10° 147° (SSE) 2,108 ? 6.6°
Sets 09:45:01 0° 126° (SE) 2,924 ? 6.9°
